SL-8 DEB, 1335

Orbit data source: Space-Track

SL-8 DEB, 1335 is space debris in LEO originally from a launch on Mon, 15 Mar 1965 UTC launched from the Tyuratam Missile And Space Complex (TTMTR). Debris objects in space refer to the collection of defunct objects orbiting the Earth. Examples of debris include non-operational satellites, rocket bodies, and fragments generated from explosions, collisions, or faulty payload assembly.

Loading next visibility...
Identifier
1335, 1965-020E
Orbit
LEO
Country
Flag of CISCIS
Related business
Manufacturer
Unknown
Mission
Spacecraft
Bus & Motor
Unknown
Mass
Unknown
Launch date (UTC)
1965-03-15 (61 years ago)
Launch vehicle
Unknown
Launch site
Tyuratam Missile And Space Complex (TTMTR)
Object type
Payload
Rocket body
Debris
Shape & HBR
Unknown
Radar Cross Section
Medium (>0.1 m² and <1 m²)

Expand to show TLE details & history
Last TLE update: 1 day ago

TLE from 1 day ago
0 SL-8 DEB
1 01335U 65020E   25261.16777098  .00002738  00000-0  80896-3 0  9990
2 01335  56.0725 184.0031 0532705  37.2721 326.4003 13.86242104972243
Epoch: 2025-09-18T04:01Z
TLE epoch observation values (Epoch: 2025-09-18T04:01:35.412Z)
Latitude
-0.00002°
Longitude
126.27229°
Altitude
624.966 km
Speed
7.709 km/s
True Right ascension
12h 16m 00s
True Declination
0° 00' 00"
Sunlit
Object was in daylight at epoch
Visualization orbit readout
Latitude
Unknown
Longitude
Unknown
Altitude
Unknown
Speed
Unknown
Apparent Right ascension
Unknown
Apparent Declination
Unknown
Sunlit
N/A
Visualization observer readout
Local Sidereal Time
21:22:17
Azimuth
Unknown
Elevation
Unknown
Doppler factor
Unknown
Orbital elements
Apogee altitude
1,331.565 km
Perigee altitude
551.709 km
Semi-major axis
7,319.774 km
Eccentricity
0.05327
Inclination
56.0725°
RAAN
184.0031°
Arg. of periapsis
37.2721°
True anomaly
322.82671°
Mean anomaly
326.4003°
Eccentric anomaly
324.6337°
Mean motion
3.46575 °/min
Orbital period
103.87 mins
BSTAR
0.00080896
Loading maneuver chart data...
Computing Atmospheric mass density...
Loading historical data...
Loading historical data...
Loading historical data...
Loading historical data...
Loading historical data...
Loading historical data...
Loading historical data...

Documentation

Showing up to 5 results
|